User: anonymous   Login
Location: Muenchen
(48.1800°N, 11.5800°E)
Time: 20:19:07
(UTC+01:00)
Language:

Iridium 73 - Orbit

View from above orbital plane
View from above orbital plane
View from above satellite
View from above satellite

Ground track
Ground track

The orbit data is extracted from the following two-line orbital elements,

1 25344U 98032C   17019.25763577  .00000122  00000-0  26878-4 0  9990
2 25344  86.4425 265.8603 0001942 106.6274 253.5143 14.49004162985984
Epoch (UTC): 19 January 2017 06:10:59
Eccentricity: 0.0001942
inclination: 86.4425°
perigee height: 727 km
apogee height: 730 km
right ascension of ascending node: 265.8603°
argument of perigee: 106.6274°
revolutions per day: 14.49004162
mean anomaly at epoch: 253.5143°
orbit number at epoch: 98598

The dashed part of the orbit path shows where the satellite is in the earth's shadow,  

DLR